Showing default

EGYPTSAT A, 44047

Orbit data source: Space-Track

EGYPTSAT A, 44047 is a payload satellite owned by EgSA (EG) in SSO that was launched on Thu, 21 Feb 2019 UTC via a SOYUZ-2-1B launch vehicle from the Tyuratam Missile And Space Complex (TTMTR). Payloads include a variety of satellites, spacecraft, and rockets equipped with specific instruments for various scientific and technological missions. These include communications satellites like Starlink; space stations such as the ISS; scientific satellites like the Hubble; Earth observation satellites from companies like Planet Labs, Umbra, and HawkEye 360; GPS; miniature CubeSats for education and research; and military/defense satellites.

Loading next visibility...
EGYPTSAT A details
Identifier
44047, 2019-008A
Orbit
SSO
Last TLE update10 hours ago
Origin
Flag of EGEgSA (EG / EGYP)
ManufacturerYuzhnoe
MissionOperational Civil Imaging
Bus & MotorEGYPTSAT, Unknown motor
Mass~1,050 kg wet, ~1,050 kg dry
Launch date (UTC)
2019-02-21 (6 years ago)
Launch vehicle
SOYUZ-2-1B
Launch site
Tyuratam Missile And Space Complex (TTMTR)
Object type
Payload
Rocket body
Debris
Shape & HBRBox + 4 Pan + 1 Ant, 2 m
Radar Cross Section0.867 m², Large (>1 m²)

Expand to show TLE details & history

TLE from 10 hours ago
0 EGYPTSAT A
1 44047U 19008A   24336.89955634  .00002257  00000-0  36503-3 0  9990
2 44047  98.0086  38.7337 0001400  82.6028 277.5338 14.72283765310503
Epoch: 2024-12-01T21:35Z
Definitive object data (Epoch: 2024-12-01T21:35:21.667Z)
Latitude-0.00009°
Longitude3.66229°
Altitude656.666 km
Speed7.529 km/s
True Right ascension02h 34m 56s
True Declination0° 00' 00"
Sunlit
Object was in full shadow at TLE epoch
Visualization TLE readout
Latitude81.83472°
Longitude-73.14911°
Altitude666.293 km
Speed7.531 km/s
Apparent Right ascension18h 08m 36s
Apparent Declination27° 42' 02"
Sunlit
Object is in daylight
Visualization observer readout
Local Sidereal Time05:32:37
Azimuth351.419° N
Elevation-21.866°
Doppler factor1
Orbital elements
Apogee altitude651.827 km
Perigee altitude649.859 km
Semi-major axis7,028.98 km
Eccentricity0.00014
Inclination98.0086°
RAAN38.7337°
Arg. of periapsis82.6028°
True anomaly277.5179°
Mean anomaly277.5338°
Eccentric anomaly277.52585°
Mean motion3.68303 °/min
BSTAR0.00036503
Orbital period97.75 mins
Loading maneuver chart data...
Loading historical data...
Loading historical data...
Loading historical data...
Loading historical data...
Loading historical data...
Loading historical data...
Loading historical data...
Other satellites on launch #8 in the year 2019 (2019-02-21 UTC)

EGYPTSAT A Visibility forecast

Observer location: undefined°, undefined

Span
Click to sort rows by Start time (UTC) header in descending order
Start Az.
Max El. time (UTC)
Max El. Az.
Max El.
End time (UTC)
End Az.
5 mins2024-12-02 16:07:29.761Z53.004° ENE2024-12-02 16:10:29.761Z96.14° ESE16.302°2024-12-02 16:12:29.761Z125.834° SE
6 mins2024-12-02 17:44:29.761Z349.476° N2024-12-02 17:47:29.761Z278.649° WNW33.703°2024-12-02 17:50:29.761Z222.953° SW
7 mins2024-12-03 04:42:29.761Z189.778° SSW2024-12-03 04:45:29.761Z258.407° W37.887°2024-12-03 04:49:29.761Z335.267° NNW
|